ATLAS 5 CENTAUR DEB, 44675

Orbit data source: Space-Track

ATLAS 5 CENTAUR DEB, 44675 is space debris in HEO originally from a launch on Wed, 17 Oct 2018 UTC launched from the Air Force Eastern Test Range (AFETR). Debris objects in space refer to the collection of defunct objects orbiting the Earth. Examples of debris include non-operational satellites, rocket bodies, and fragments generated from explosions, collisions, or faulty payload assembly.

Loading next visibility...
ATLAS 5 CENTAUR DEB details
Identifier
44675, 2018-079AM
Orbit
HEO
Last TLE update1 day ago
Origin
Flag of USULA (US)
ManufacturerULA Decatur
MissionSpacecraft
Bus & MotorUnknown
MassUnknown
Launch date (UTC)
2018-10-17 (6 years ago)
Launch vehicleUnknown
Launch site
Air Force Eastern Test Range (AFETR)
Object type
Payload
Rocket body
Debris
Shape & HBRUnknown
Radar Cross SectionRCS unknown

Expand to show TLE details & history

TLE from 1 day ago
0 ATLAS 5 CENTAUR DEB
1 44675U 18079AM  24360.03548278 -.00000137  00000-0  00000-0 0  9995
2 44675  12.7097  82.6542 4692621 218.6554  95.9733  1.80470548 37229
Epoch: 2024-12-25T00:51Z
Definitive object data (Epoch: 2024-12-25T00:51:05.712Z)
Latitude0.00001°
Longitude-24.19628°
Altitude28,717.456 km
Speed2.954 km/s
True Right ascension05h 30m 27s
True Declination0° 00' 00"
Sunlit
Object was in daylight at TLE epoch
Visualization TLE readout
Latitude10.5875°
Longitude99.91243°
Altitude16,826.628 km
Speed4.513 km/s
Apparent Right ascension14h 25m 30s
Apparent Declination0° 32' 44"
Sunlit
Object is in daylight
Visualization observer readout
Local Sidereal Time11:00:04
Azimuth116.732° SE
Elevation29.014°
Doppler factor1
Orbital elements
Apogee altitude35,494.362 km
Perigee altitude8,747.362 km
Semi-major axis28,498.999 km
Eccentricity0.4692621
Inclination12.7097°
RAAN82.6542°
Arg. of periapsis218.6554°
True anomaly141.29502°
Mean anomaly95.9733°
Eccentric anomaly119.39788°
Mean motion0.45113 °/min
BSTARUnknown
Orbital period798 mins
Loading maneuver chart data...

ATLAS 5 CENTAUR DEB Visibility forecast

Observer location: undefined°, undefined

Span
Click to sort rows by Start time (UTC) header in descending order
Start Az.
Max El. time (UTC)
Max El. Az.
Max El.
End time (UTC)
End Az.
33 mins2024-12-26 11:38:41.554Z116.763° SE2024-12-26 11:38:41.554Z116.763° SE25.862°2024-12-26 12:11:41.554Z106.858° ESE
492 mins2024-12-27 03:26:41.554Z217.008° SW2024-12-27 11:38:41.554Z209.995° SW38.601°2024-12-27 11:38:41.554Z209.995° SW
|